Precipitable_Water
0.47 0.52 0.55 0.57 0.58 0.59 0.60 0.61 0.61 0.63 0.65 0.62 0.58 0.55 0.51 0.45 0.43 0.39 0.40 0.48 0.49 0.50 0.52 0.52 0.50 0.50 0.52 0.46 0.40 0.39 0.34 0.35 0.35 0.37 0.41 0.45 0.52 0.57 0.58 0.61 0.65 0.70 0.74 0.78 0.87 1.01 1.08 1.15 1.19 1.26 1.33 1.33 1.39 1.38 1.39 1.42 1.43 1.42 1.42 1.42 1.44 1.37 1.38 1.45 1.43 1.39 1.32 1.27 1.21 1.17 1.14 1.15 1.05 0.96 0.90 0.87 0.83 0.79 0.75 0.69 0.71 0.74 0.77 0.80 0.82
0.51 0.54 0.58 0.61 0.61 0.60 0.60 0.60 0.61 0.59 0.62 0.60 0.56 0.55 0.53 0.48 0.44 0.42 0.47 0.48 0.51 0.52 0.53 0.54 0.54 0.50 0.46 0.44 0.43 0.42 0.35 0.32 0.32 0.38 0.40 0.41 0.42 0.47 0.50 0.51 0.51 0.50 0.55 0.62 0.65 0.71 0.78 0.88 1.02 1.13 1.21 1.28 1.36 1.44 1.43 1.38 1.35 1.38 1.41 1.38 1.40 1.35 1.30 1.41 1.38 1.34 1.18 1.16 1.11 1.05 1.11 1.21 1.18 1.11 1.02 0.96 0.93 0.94 0.91 0.82 0.75 0.73 0.73 0.77 0.82
0.49 0.55 0.59 0.61 0.60 0.60 0.59 0.60 0.60 0.60 0.61 0.59 0.58 0.56 0.55 0.50 0.46 0.47 0.50 0.51 0.52 0.57 0.56 0.54 0.54 0.48 0.45 0.43 0.45 0.43 0.43 0.39 0.40 0.44 0.48 0.46 0.48 0.47 0.48 0.49 0.48 0.46 0.48 0.54 0.58 0.59 0.62 0.68 0.77 0.89 1.02 1.15 1.22 1.28 1.33 1.29 1.28 1.23 1.23 1.21 1.25 1.33 1.29 1.36 1.31 1.27 1.12 1.21 1.19 1.11 1.03 0.96 1.05 1.08 1.12 1.07 1.04 1.01 0.97 0.90 0.85 0.81 0.81 0.81 0.83
0.48 0.53 0.56 0.59 0.60 0.59 0.58 0.59 0.60 0.62 0.61 0.59 0.58 0.56 0.56 0.53 0.49 0.50 0.53 0.53 0.52 0.55 0.58 0.61 0.54 0.47 0.46 0.46 0.49 0.46 0.41 0.44 0.46 0.49 0.50 0.48 0.46 0.49 0.48 0.46 0.46 0.45 0.47 0.54 0.57 0.56 0.55 0.54 0.57 0.62 0.72 0.81 0.90 0.99 1.08 1.08 1.08 1.12 1.14 1.11 1.09 1.03 1.20 1.25 1.34 1.33 1.20 1.20 1.02 0.99 1.04 1.02 0.89 0.91 0.98 1.07 1.12 1.08 1.06 1.00 0.97 0.92 0.89 0.89 0.88
0.47 0.53 0.57 0.58 0.58 0.57 0.56 0.57 0.60 0.59 0.58 0.57 0.57 0.56 0.58 0.56 0.51 0.51 0.55 0.53 0.52 0.52 0.53 0.55 0.50 0.47 0.47 0.49 0.51 0.49 0.48 0.45 0.44 0.45 0.48 0.48 0.46 0.47 0.47 0.48 0.45 0.46 0.49 0.55 0.57 0.55 0.55 0.53 0.51 0.53 0.55 0.59 0.62 0.65 0.71 0.78 0.85 0.91 0.97 1.00 1.04 1.01 1.01 1.14 1.23 1.28 1.28 1.35 1.11 0.94 0.91 0.92 0.90 0.99 1.04 1.00 1.12 1.09 1.10 1.12 1.12 1.09 1.05 1.02 0.98
0.44 0.48 0.53 0.56 0.55 0.55 0.56 0.58 0.57 0.57 0.57 0.58 0.59 0.60 0.60 0.59 0.56 0.53 0.56 0.52 0.51 0.51 0.50 0.50 0.46 0.43 0.42 0.41 0.40 0.41 0.39 0.39 0.37 0.38 0.41 0.42 0.43 0.47 0.48 0.48 0.48 0.48 0.51 0.52 0.53 0.57 0.56 0.55 0.52 0.51 0.53 0.56 0.55 0.54 0.55 0.58 0.62 0.66 0.75 0.81 0.84 0.96 0.97 0.98 1.02 1.22 1.27 1.31 1.29 1.11 1.09 1.00 1.02 1.11 1.04 0.85 1.10 1.15 1.15 1.18 1.19 1.20 1.18 1.14 1.11
0.44 0.50 0.55 0.55 0.56 0.54 0.53 0.53 0.54 0.55 0.56 0.60 0.61 0.62 0.63 0.62 0.62 0.60 0.55 0.50 0.49 0.49 0.50 0.49 0.45 0.42 0.41 0.40 0.41 0.40 0.38 0.40 0.41 0.44 0.43 0.45 0.47 0.46 0.48 0.52 0.54 0.54 0.53 0.55 0.56 0.56 0.55 0.55 0.53 0.53 0.53 0.56 0.59 0.56 0.51 0.51 0.54 0.57 0.64 0.67 0.71 0.79 0.86 0.79 0.84 0.93 1.07 1.16 1.26 1.28 1.20 1.19 1.27 1.13 1.02 1.09 0.93 1.07 1.18 1.19 1.20 1.24 1.24 1.21 1.18
0.41 0.46 0.49 0.49 0.50 0.50 0.49 0.50 0.52 0.53 0.57 0.61 0.62 0.64 0.63 0.64 0.66 0.65 0.62 0.51 0.49 0.50 0.50 0.48 0.43 0.42 0.41 0.42 0.45 0.44 0.42 0.40 0.41 0.42 0.44 0.43 0.44 0.47 0.50 0.54 0.58 0.58 0.58 0.56 0.55 0.55 0.53 0.50 0.48 0.47 0.47 0.50 0.53 0.52 0.52 0.55 0.55 0.57 0.60 0.63 0.67 0.71 0.71 0.70 0.71 0.82 0.80 0.89 1.09 1.13 1.14 1.18 1.25 1.21 1.22 1.07 0.98 0.91 1.00 1.19 1.24 1.27 1.29 1.28 1.27
0.40 0.43 0.46 0.48 0.50 0.49 0.49 0.50 0.52 0.55 0.59 0.61 0.62 0.64 0.66 0.68 0.68 0.69 0.66 0.55 0.51 0.51 0.50 0.49 0.46 0.44 0.43 0.46 0.46 0.48 0.47 0.43 0.45 0.47 0.44 0.45 0.43 0.48 0.50 0.53 0.56 0.60 0.61 0.59 0.57 0.56 0.52 0.47 0.43 0.41 0.40 0.42 0.45 0.46 0.52 0.55 0.56 0.56 0.58 0.59 0.61 0.63 0.65 0.69 0.69 0.70 0.71 0.71 0.77 0.83 0.98 1.07 1.15 1.15 1.15 1.16 1.01 0.91 0.91 1.00 1.07 1.23 1.28 1.33 1.33
0.41 0.41 0.42 0.45 0.47 0.50 0.52 0.52 0.56 0.57 0.59 0.63 0.65 0.67 0.68 0.69 0.69 0.69 0.67 0.58 0.54 0.53 0.53 0.51 0.50 0.47 0.47 0.49 0.47 0.48 0.47 0.45 0.46 0.46 0.45 0.44 0.41 0.46 0.49 0.51 0.52 0.56 0.58 0.58 0.57 0.55 0.51 0.47 0.42 0.39 0.39 0.39 0.38 0.38 0.40 0.44 0.49 0.53 0.57 0.59 0.62 0.61 0.64 0.61 0.59 0.65 0.72 0.74 0.74 0.73 0.69 0.73 0.80 0.84 0.91 1.00 1.08 1.10 0.93 0.93 1.06 1.11 1.07 1.20 1.35
0.39 0.42 0.44 0.47 0.51 0.52 0.54 0.53 0.55 0.59 0.62 0.64 0.65 0.66 0.68 0.69 0.69 0.68 0.67 0.61 0.56 0.55 0.56 0.55 0.53 0.50 0.49 0.52 0.52 0.50 0.48 0.45 0.45 0.46 0.46 0.44 0.40 0.42 0.45 0.49 0.53 0.52 0.53 0.55 0.54 0.53 0.49 0.46 0.44 0.44 0.45 0.44 0.43 0.42 0.40 0.40 0.42 0.42 0.44 0.48 0.52 0.55 0.61 0.63 0.62 0.61 0.63 0.65 0.70 0.73 0.67 0.63 0.58 0.56 0.60 0.72 0.80 0.82 0.92 0.97 1.03 1.13 1.13 1.11 1.23
0.39 0.41 0.44 0.48 0.54 0.60 0.63 0.59 0.59 0.59 0.62 0.63 0.65 0.68 0.69 0.69 0.70 0.68 0.66 0.58 0.56 0.57 0.58 0.57 0.55 0.53 0.53 0.52 0.49 0.50 0.49 0.47 0.46 0.45 0.46 0.43 0.42 0.41 0.46 0.49 0.50 0.53 0.52 0.52 0.52 0.51 0.50 0.48 0.47 0.46 0.45 0.45 0.45 0.45 0.46 0.45 0.45 0.45 0.43 0.42 0.42 0.45 0.49 0.53 0.58 0.59 0.59 0.59 0.65 0.75 0.79 0.82 0.82 0.78 0.74 0.73 0.71 0.72 0.82 0.94 1.04 1.08 1.11 1.13 1.21
0.38 0.40 0.45 0.47 0.51 0.55 0.58 0.59 0.61 0.61 0.59 0.61 0.63 0.67 0.69 0.69 0.69 0.66 0.62 0.59 0.57 0.59 0.57 0.57 0.57 0.56 0.55 0.53 0.49 0.49 0.49 0.48 0.48 0.46 0.46 0.44 0.43 0.42 0.44 0.45 0.48 0.49 0.49 0.49 0.52 0.52 0.51 0.48 0.46 0.45 0.45 0.45 0.44 0.44 0.44 0.44 0.44 0.43 0.42 0.43 0.44 0.43 0.42 0.43 0.44 0.51 0.56 0.55 0.55 0.64 0.73 0.80 0.83 0.89 0.94 0.96 0.93 0.85 0.77 0.72 0.88 1.10 1.03 1.02 1.12
0.38 0.40 0.44 0.46 0.49 0.53 0.57 0.59 0.58 0.58 0.59 0.59 0.61 0.64 0.68 0.69 0.69 0.64 0.61 0.60 0.60 0.59 0.57 0.56 0.57 0.57 0.56 0.53 0.50 0.50 0.49 0.49 0.47 0.46 0.47 0.45 0.45 0.44 0.44 0.46 0.45 0.46 0.48 0.48 0.53 0.54 0.52 0.50 0.48 0.47 0.47 0.46 0.46 0.46 0.46 0.46 0.45 0.43 0.42 0.41 0.40 0.43 0.44 0.44 0.43 0.45 0.48 0.53 0.57 0.55 0.58 0.67 0.76 0.85 0.91 0.93 0.92 0.92 0.89 0.81 0.73 0.80 0.89 0.87 0.96
0.41 0.41 0.43 0.44 0.49 0.52 0.55 0.58 0.57 0.56 0.57 0.59 0.61 0.64 0.67 0.68 0.68 0.65 0.63 0.63 0.60 0.57 0.57 0.56 0.58 0.59 0.57 0.54 0.52 0.51 0.49 0.49 0.49 0.49 0.49 0.47 0.47 0.47 0.46 0.47 0.45 0.47 0.49 0.51 0.55 0.53 0.51 0.50 0.49 0.48 0.48 0.47 0.47 0.46 0.46 0.45 0.44 0.43 0.43 0.42 0.42 0.43 0.40 0.40 0.42 0.43 0.42 0.44 0.48 0.52 0.53 0.56 0.62 0.71 0.79 0.84 0.91 0.90 0.91 0.97 0.95 0.80 0.74 0.79 0.78
0.39 0.41 0.44 0.47 0.50 0.52 0.53 0.54 0.55 0.56 0.57 0.59 0.61 0.65 0.67 0.67 0.67 0.65 0.61 0.61 0.59 0.57 0.56 0.56 0.58 0.60 0.59 0.56 0.54 0.52 0.52 0.51 0.52 0.52 0.52 0.50 0.49 0.49 0.48 0.48 0.49 0.49 0.51 0.52 0.53 0.52 0.50 0.50 0.51 0.51 0.51 0.50 0.49 0.49 0.49 0.48 0.47 0.44 0.43 0.42 0.40 0.43 0.40 0.38 0.39 0.41 0.43 0.45 0.47 0.50 0.50 0.51 0.56 0.60 0.66 0.76 0.82 0.87 0.91 0.96 0.96 0.92 0.81 0.67 0.73
0.43 0.44 0.46 0.49 0.52 0.55 0.56 0.56 0.57 0.58 0.61 0.62 0.62 0.64 0.64 0.66 0.68 0.66 0.64 0.63 0.60 0.59 0.57 0.56 0.58 0.59 0.60 0.60 0.58 0.54 0.52 0.50 0.50 0.51 0.52 0.53 0.52 0.52 0.50 0.51 0.52 0.51 0.51 0.53 0.52 0.53 0.53 0.52 0.51 0.52 0.52 0.51 0.50 0.51 0.50 0.49 0.48 0.47 0.45 0.43 0.41 0.42 0.42 0.41 0.41 0.40 0.40 0.43 0.45 0.48 0.50 0.51 0.54 0.58 0.61 0.66 0.72 0.78 0.83 0.90 0.94 0.87 0.90 0.84 0.71
0.45 0.50 0.52 0.52 0.50 0.51 0.53 0.55 0.56 0.58 0.60 0.61 0.61 0.64 0.65 0.67 0.67 0.66 0.64 0.61 0.62 0.62 0.61 0.58 0.56 0.56 0.57 0.59 0.58 0.56 0.54 0.53 0.52 0.52 0.53 0.53 0.54 0.53 0.53 0.52 0.53 0.53 0.52 0.53 0.53 0.53 0.53 0.54 0.52 0.52 0.51 0.51 0.51 0.51 0.49 0.48 0.46 0.45 0.45 0.45 0.45 0.44 0.42 0.42 0.43 0.44 0.43 0.43 0.42 0.44 0.47 0.49 0.54 0.56 0.57 0.58 0.60 0.65 0.73 0.80 0.81 0.83 0.87 0.82 0.80
0.42 0.44 0.50 0.53 0.55 0.53 0.53 0.53 0.55 0.58 0.60 0.61 0.61 0.63 0.64 0.66 0.68 0.67 0.63 0.62 0.61 0.63 0.63 0.61 0.59 0.56 0.55 0.56 0.57 0.57 0.56 0.54 0.54 0.54 0.54 0.52 0.52 0.52 0.52 0.53 0.54 0.54 0.53 0.53 0.53 0.53 0.54 0.53 0.53 0.50 0.50 0.50 0.51 0.50 0.48 0.46 0.44 0.43 0.44 0.43 0.44 0.44 0.42 0.40 0.43 0.44 0.44 0.44 0.42 0.40 0.42 0.44 0.48 0.52 0.55 0.58 0.60 0.61 0.62 0.68 0.76 0.79 0.73 0.73 0.76
0.41 0.44 0.46 0.47 0.51 0.56 0.59 0.59 0.58 0.61 0.65 0.67 0.68 0.69 0.67 0.68 0.69 0.67 0.66 0.65 0.65 0.64 0.64 0.62 0.61 0.58 0.55 0.56 0.57 0.57 0.58 0.56 0.56 0.55 0.54 0.52 0.52 0.52 0.52 0.52 0.53 0.53 0.52 0.52 0.52 0.52 0.52 0.51 0.50 0.49 0.50 0.50 0.49 0.49 0.47 0.45 0.44 0.43 0.43 0.43 0.44 0.44 0.42 0.40 0.40 0.42 0.44 0.45 0.43 0.41 0.41 0.41 0.42 0.45 0.48 0.52 0.56 0.59 0.61 0.61 0.65 0.70 0.76 0.78 0.70
0.38 0.38 0.41 0.45 0.47 0.52 0.61 0.67 0.68 0.66 0.64 0.67 0.71 0.70 0.67 0.69 0.69 0.69 0.66 0.65 0.63 0.64 0.65 0.64 0.63 0.60 0.56 0.54 0.54 0.57 0.58 0.58 0.57 0.57 0.55 0.54 0.54 0.54 0.53 0.54 0.53 0.50 0.50 0.50 0.50 0.51 0.50 0.47 0.47 0.49 0.49 0.49 0.48 0.47 0.47 0.45 0.44 0.43 0.44 0.44 0.45 0.45 0.43 0.43 0.42 0.41 0.41 0.42 0.43 0.43 0.43 0.43 0.43 0.41 0.42 0.45 0.49 0.54 0.58 0.59 0.63 0.71 0.76 0.82 0.84
0.37 0.38 0.39 0.42 0.43 0.46 0.54 0.63 0.63 0.66 0.68 0.69 0.70 0.72 0.73 0.71 0.70 0.74 0.76 0.73 0.69 0.67 0.65 0.66 0.65 0.62 0.57 0.55 0.56 0.60 0.60 0.58 0.57 0.57 0.55 0.55 0.54 0.54 0.55 0.54 0.49 0.48 0.49 0.49 0.49 0.47 0.45 0.46 0.47 0.48 0.48 0.48 0.47 0.46 0.45 0.44 0.43 0.42 0.42 0.44 0.44 0.44 0.44 0.43 0.43 0.41 0.41 0.41 0.41 0.39 0.40 0.44 0.47 0.44 0.41 0.40 0.43 0.47 0.52 0.53 0.55 0.61 0.68 0.80 0.94
0.36 0.37 0.39 0.40 0.40 0.39 0.41 0.48 0.50 0.57 0.63 0.67 0.69 0.70 0.74 0.77 0.76 0.71 0.69 0.70 0.72 0.72 0.71 0.69 0.68 0.65 0.61 0.59 0.60 0.61 0.61 0.58 0.57 0.57 0.56 0.55 0.54 0.54 0.55 0.52 0.49 0.47 0.49 0.48 0.46 0.45 0.45 0.46 0.47 0.48 0.48 0.47 0.46 0.45 0.44 0.43 0.42 0.41 0.40 0.41 0.43 0.43 0.42 0.42 0.41 0.42 0.42 0.43 0.42 0.41 0.40 0.44 0.48 0.46 0.44 0.43 0.42 0.43 0.48 0.52 0.53 0.57 0.61 0.70 0.86
0.37 0.38 0.39 0.38 0.39 0.41 0.40 0.41 0.47 0.53 0.58 0.66 0.70 0.72 0.70 0.70 0.83 0.86 0.75 0.67 0.68 0.68 0.73 0.72 0.70 0.68 0.66 0.64 0.63 0.65 0.62 0.58 0.56 0.57 0.57 0.56 0.56 0.55 0.54 0.51 0.48 0.47 0.46 0.47 0.46 0.45 0.46 0.47 0.47 0.47 0.46 0.45 0.44 0.43 0.42 0.42 0.40 0.40 0.39 0.39 0.40 0.40 0.40 0.40 0.40 0.41 0.42 0.43 0.43 0.42 0.42 0.44 0.47 0.47 0.47 0.46 0.45 0.44 0.43 0.47 0.52 0.55 0.58 0.61 0.74
0.35 0.36 0.37 0.39 0.42 0.44 0.45 0.44 0.46 0.53 0.57 0.57 0.61 0.68 0.73 0.70 0.68 0.79 0.94 0.90 0.76 0.71 0.71 0.72 0.71 0.69 0.69 0.67 0.66 0.67 0.64 0.61 0.59 0.59 0.58 0.57 0.55 0.54 0.52 0.49 0.48 0.47 0.47 0.47 0.47 0.48 0.48 0.48 0.46 0.45 0.44 0.43 0.43 0.42 0.41 0.40 0.40 0.41 0.40 0.40 0.40 0.40 0.40 0.40 0.40 0.41 0.42 0.42 0.43 0.42 0.43 0.44 0.46 0.46 0.48 0.48 0.48 0.46 0.44 0.43 0.45 0.52 0.56 0.59 0.64
0.33 0.36 0.38 0.39 0.40 0.41 0.42 0.43 0.46 0.51 0.57 0.60 0.62 0.66 0.71 0.70 0.67 0.70 0.71 0.90 1.02 0.99 0.83 0.74 0.73 0.70 0.70 0.70 0.70 0.70 0.66 0.64 0.64 0.63 0.61 0.58 0.56 0.53 0.52 0.51 0.50 0.47 0.47 0.48 0.48 0.49 0.48 0.47 0.46 0.45 0.44 0.43 0.43 0.41 0.40 0.40 0.40 0.41 0.41 0.41 0.41 0.40 0.40 0.40 0.41 0.42 0.42 0.43 0.43 0.43 0.43 0.44 0.44 0.45 0.46 0.49 0.51 0.50 0.48 0.44 0.42 0.45 0.52 0.58 0.59
0.31 0.32 0.33 0.35 0.36 0.38 0.43 0.45 0.46 0.49 0.51 0.58 0.60 0.63 0.68 0.74 0.75 0.74 0.73 0.71 0.72 0.91 1.04 0.92 0.81 0.75 0.73 0.75 0.74 0.72 0.70 0.68 0.68 0.67 0.64 0.61 0.58 0.56 0.54 0.52 0.52 0.50 0.48 0.48 0.48 0.48 0.48 0.47 0.46 0.45 0.44 0.42 0.41 0.41 0.40 0.39 0.39 0.39 0.39 0.39 0.40 0.40 0.41 0.41 0.42 0.42 0.44 0.44 0.44 0.44 0.44 0.44 0.44 0.44 0.45 0.46 0.49 0.51 0.51 0.49 0.46 0.44 0.47 0.53 0.55
0.32 0.32 0.32 0.31 0.30 0.33 0.37 0.43 0.45 0.47 0.52 0.53 0.56 0.61 0.63 0.65 0.68 0.72 0.73 0.73 0.73 0.73 0.83 0.95 0.88 0.81 0.80 0.81 0.80 0.77 0.73 0.72 0.73 0.71 0.67 0.63 0.61 0.59 0.56 0.55 0.54 0.51 0.49 0.49 0.48 0.47 0.47 0.46 0.45 0.43 0.42 0.42 0.41 0.40 0.38 0.38 0.37 0.37 0.36 0.37 0.37 0.37 0.38 0.40 0.41 0.42 0.43 0.44 0.45 0.46 0.46 0.46 0.46 0.46 0.46 0.47 0.48 0.48 0.51 0.51 0.52 0.49 0.45 0.46 0.48
0.28 0.31 0.32 0.31 0.30 0.31 0.34 0.36 0.42 0.44 0.46 0.50 0.53 0.59 0.65 0.65 0.67 0.69 0.71 0.73 0.76 0.73 0.76 0.79 0.82 0.81 0.85 0.88 0.85 0.82 0.78 0.78 0.76 0.74 0.69 0.65 0.62 0.60 0.59 0.57 0.54 0.52 0.50 0.49 0.49 0.48 0.46 0.44 0.43 0.41 0.41 0.42 0.40 0.39 0.38 0.37 0.36 0.35 0.33 0.32 0.32 0.33 0.35 0.35 0.37 0.38 0.40 0.41 0.42 0.43 0.44 0.45 0.46 0.47 0.48 0.48 0.49 0.50 0.50 0.49 0.52 0.53 0.49 0.45 0.44
0.27 0.28 0.30 0.30 0.31 0.32 0.34 0.35 0.37 0.40 0.42 0.44 0.48 0.53 0.58 0.64 0.69 0.76 0.80 0.84 0.81 0.78 0.77 0.77 0.78 0.80 0.88 0.91 0.87 0.84 0.82 0.83 0.81 0.76 0.71 0.67 0.64 0.62 0.59 0.56 0.53 0.51 0.50 0.50 0.49 0.48 0.45 0.42 0.41 0.41 0.41 0.40 0.39 0.39 0.38 0.37 0.36 0.34 0.32 0.31 0.31 0.33 0.35 0.35 0.35 0.36 0.37 0.38 0.40 0.41 0.42 0.43 0.44 0.45 0.46 0.46 0.45 0.45 0.46 0.47 0.48 0.52 0.53 0.50 0.46
0.29 0.29 0.30 0.30 0.31 0.32 0.33 0.35 0.37 0.38 0.39 0.43 0.46 0.49 0.53 0.58 0.68 0.68 0.69 0.85 0.90 0.84 0.80 0.81 0.80 0.82 0.79 0.83 0.88 0.87 0.86 0.85 0.82 0.79 0.73 0.68 0.65 0.63 0.59 0.56 0.53 0.51 0.50 0.50 0.49 0.45 0.43 0.43 0.41 0.40 0.39 0.38 0.38 0.38 0.37 0.36 0.35 0.34 0.33 0.32 0.32 0.34 0.35 0.35 0.36 0.35 0.35 0.36 0.38 0.39 0.40 0.41 0.41 0.42 0.44 0.45 0.46 0.46 0.46 0.46 0.47 0.49 0.51 0.52 0.51
0.30 0.31 0.33 0.34 0.35 0.35 0.34 0.35 0.37 0.40 0.40 0.40 0.43 0.47 0.52 0.57 0.63 0.71 0.74 0.75 0.89 0.92 0.85 0.78 0.76 0.77 0.74 0.80 0.85 0.85 0.87 0.85 0.82 0.79 0.74 0.70 0.67 0.62 0.58 0.56 0.54 0.52 0.52 0.51 0.47 0.45 0.44 0.43 0.42 0.40 0.38 0.38 0.37 0.37 0.37 0.36 0.36 0.35 0.34 0.34 0.35 0.35 0.36 0.36 0.36 0.36 0.36 0.36 0.37 0.38 0.39 0.41 0.41 0.41 0.41 0.41 0.43 0.45 0.46 0.47 0.47 0.48 0.49 0.51 0.54
0.31 0.32 0.32 0.34 0.36 0.38 0.39 0.38 0.39 0.40 0.41 0.42 0.44 0.45 0.46 0.52 0.60 0.68 0.75 0.76 0.76 0.79 0.84 0.82 0.81 0.82 0.76 0.79 0.80 0.87 0.87 0.84 0.80 0.78 0.74 0.71 0.64 0.61 0.59 0.58 0.56 0.56 0.53 0.49 0.47 0.46 0.44 0.43 0.41 0.38 0.37 0.37 0.36 0.36 0.36 0.35 0.34 0.34 0.35 0.36 0.37 0.37 0.36 0.36 0.37 0.37 0.37 0.36 0.36 0.36 0.37 0.39 0.40 0.41 0.41 0.42 0.41 0.42 0.43 0.45 0.47 0.48 0.48 0.49 0.51
0.34 0.35 0.35 0.36 0.37 0.38 0.39 0.40 0.42 0.43 0.44 0.44 0.44 0.44 0.48 0.52 0.56 0.62 0.70 0.76 0.76 0.76 0.76 0.79 0.79 0.78 0.78 0.74 0.74 0.79 0.79 0.79 0.79 0.77 0.73 0.68 0.64 0.60 0.61 0.61 0.59 0.56 0.52 0.49 0.47 0.44 0.43 0.40 0.38 0.37 0.35 0.35 0.33 0.33 0.32 0.32 0.32 0.33 0.35 0.36 0.37 0.37 0.37 0.37 0.37 0.37 0.37 0.37 0.37 0.36 0.36 0.36 0.38 0.39 0.40 0.40 0.41 0.41 0.41 0.42 0.43 0.45 0.46 0.47 0.49
0.34 0.34 0.36 0.37 0.38 0.39 0.38 0.37 0.37 0.40 0.43 0.44 0.42 0.41 0.44 0.49 0.55 0.58 0.65 0.72 0.78 0.74 0.77 0.75 0.76 0.78 0.77 0.75 0.76 0.75 0.73 0.73 0.76 0.75 0.70 0.65 0.63 0.62 0.62 0.61 0.57 0.54 0.51 0.48 0.45 0.42 0.40 0.38 0.36 0.33 0.31 0.28 0.28 0.28 0.29 0.30 0.31 0.33 0.35 0.37 0.37 0.38 0.37 0.37 0.38 0.38 0.38 0.38 0.38 0.38 0.37 0.36 0.37 0.38 0.39 0.40 0.40 0.40 0.40 0.40 0.41 0.41 0.43 0.45 0.47
0.34 0.34 0.35 0.37 0.38 0.39 0.40 0.39 0.40 0.39 0.38 0.39 0.40 0.43 0.41 0.43 0.53 0.56 0.61 0.64 0.67 0.82 0.82 0.83 0.80 0.79 0.78 0.78 0.78 0.75 0.73 0.73 0.72 0.70 0.67 0.64 0.63 0.62 0.60 0.59 0.56 0.54 0.52 0.47 0.44 0.41 0.37 0.33 0.30 0.27 0.25 0.26 0.28 0.30 0.31 0.32 0.33 0.34 0.35 0.36 0.36 0.36 0.36 0.37 0.38 0.38 0.39 0.39 0.39 0.39 0.38 0.38 0.38 0.37 0.38 0.39 0.40 0.40 0.40 0.39 0.39 0.40 0.41 0.42 0.43
0.34 0.36 0.36 0.38 0.38 0.38 0.39 0.41 0.41 0.40 0.38 0.37 0.38 0.41 0.41 0.41 0.47 0.53 0.57 0.56 0.59 0.69 0.86 0.90 0.89 0.91 0.88 0.88 0.87 0.83 0.77 0.74 0.70 0.67 0.64 0.62 0.62 0.61 0.59 0.58 0.54 0.50 0.45 0.43 0.39 0.34 0.31 0.28 0.25 0.24 0.24 0.24 0.26 0.28 0.31 0.32 0.33 0.34 0.35 0.35 0.35 0.35 0.36 0.36 0.37 0.38 0.39 0.40 0.40 0.40 0.40 0.39 0.39 0.39 0.40 0.41 0.41 0.41 0.40 0.38 0.38 0.38 0.40 0.41 0.41
0.32 0.34 0.37 0.39 0.39 0.39 0.40 0.40 0.39 0.40 0.40 0.40 0.41 0.41 0.42 0.42 0.42 0.51 0.55 0.55 0.56 0.61 0.69 0.79 0.84 0.86 0.87 0.87 0.82 0.79 0.78 0.73 0.69 0.65 0.61 0.61 0.61 0.60 0.57 0.55 0.49 0.44 0.40 0.37 0.33 0.31 0.29 0.27 0.24 0.23 0.23 0.23 0.24 0.26 0.29 0.31 0.33 0.34 0.35 0.34 0.35 0.35 0.35 0.36 0.37 0.39 0.40 0.40 0.40 0.41 0.41 0.41 0.40 0.40 0.41 0.42 0.42 0.42 0.40 0.39 0.39 0.38 0.38 0.38 0.40
0.35 0.35 0.35 0.36 0.38 0.38 0.38 0.39 0.39 0.38 0.39 0.43 0.44 0.44 0.44 0.42 0.43 0.46 0.53 0.54 0.55 0.59 0.69 0.76 0.80 0.83 0.84 0.82 0.79 0.75 0.71 0.70 0.66 0.61 0.62 0.61 0.59 0.56 0.56 0.52 0.46 0.41 0.37 0.36 0.34 0.32 0.29 0.27 0.25 0.24 0.24 0.23 0.24 0.26 0.29 0.31 0.33 0.34 0.35 0.35 0.35 0.35 0.35 0.36 0.37 0.37 0.39 0.40 0.40 0.41 0.41 0.41 0.42 0.42 0.43 0.43 0.43 0.43 0.42 0.41 0.41 0.40 0.37 0.37 0.39
0.36 0.38 0.39 0.39 0.38 0.38 0.36 0.36 0.37 0.38 0.42 0.45 0.45 0.45 0.43 0.44 0.44 0.47 0.48 0.53 0.57 0.60 0.66 0.70 0.75 0.79 0.79 0.80 0.79 0.75 0.72 0.67 0.63 0.63 0.62 0.60 0.59 0.55 0.49 0.44 0.41 0.39 0.37 0.36 0.35 0.33 0.29 0.26 0.25 0.24 0.23 0.22 0.22 0.24 0.28 0.30 0.32 0.33 0.35 0.36 0.36 0.36 0.35 0.36 0.37 0.37 0.37 0.38 0.39 0.39 0.40 0.41 0.42 0.43 0.44 0.45 0.45 0.45 0.44 0.43 0.42 0.40 0.38 0.37 0.43
0.36 0.37 0.39 0.38 0.37 0.37 0.37 0.39 0.40 0.42 0.45 0.46 0.46 0.44 0.41 0.43 0.45 0.49 0.48 0.53 0.60 0.64 0.68 0.70 0.73 0.76 0.76 0.76 0.76 0.75 0.70 0.66 0.64 0.62 0.60 0.56 0.52 0.46 0.44 0.42 0.39 0.38 0.36 0.35 0.34 0.33 0.30 0.26 0.24 0.23 0.22 0.22 0.22 0.24 0.27 0.30 0.32 0.34 0.36 0.37 0.37 0.37 0.37 0.37 0.36 0.36 0.36 0.36 0.37 0.39 0.41 0.44 0.45 0.46 0.47 0.47 0.47 0.47 0.47 0.46 0.44 0.42 0.42 0.44 0.46
0.37 0.38 0.38 0.36 0.36 0.37 0.39 0.41 0.43 0.45 0.47 0.47 0.47 0.43 0.41 0.42 0.45 0.47 0.52 0.60 0.66 0.67 0.66 0.70 0.73 0.74 0.74 0.71 0.70 0.69 0.66 0.63 0.60 0.55 0.50 0.48 0.48 0.46 0.43 0.41 0.39 0.37 0.34 0.33 0.33 0.31 0.28 0.25 0.23 0.22 0.22 0.22 0.23 0.25 0.27 0.30 0.32 0.34 0.36 0.38 0.38 0.38 0.39 0.38 0.36 0.36 0.37 0.38 0.41 0.43 0.45 0.47 0.49 0.50 0.50 0.51 0.51 0.51 0.51 0.50 0.48 0.48 0.48 0.48 0.47
0.33 0.33 0.35 0.36 0.35 0.36 0.39 0.42 0.46 0.48 0.50 0.50 0.50 0.45 0.43 0.43 0.44 0.50 0.58 0.65 0.68 0.66 0.64 0.65 0.64 0.67 0.68 0.68 0.65 0.60 0.57 0.54 0.51 0.50 0.50 0.47 0.46 0.43 0.41 0.39 0.36 0.35 0.33 0.32 0.30 0.28 0.26 0.23 0.21 0.21 0.22 0.23 0.24 0.26 0.28 0.30 0.33 0.35 0.37 0.38 0.39 0.39 0.40 0.40 0.39 0.38 0.40 0.42 0.46 0.48 0.50 0.52 0.53 0.54 0.55 0.55 0.55 0.55 0.54 0.53 0.52 0.52 0.51 0.51 0.50
0.33 0.34 0.35 0.37 0.37 0.39 0.43 0.46 0.49 0.53 0.54 0.55 0.54 0.49 0.48 0.45 0.46 0.53 0.58 0.63 0.67 0.67 0.64 0.61 0.64 0.68 0.64 0.59 0.55 0.53 0.52 0.52 0.51 0.49 0.48 0.44 0.42 0.39 0.38 0.37 0.36 0.33 0.31 0.29 0.28 0.27 0.24 0.21 0.20 0.21 0.22 0.24 0.26 0.27 0.28 0.30 0.33 0.36 0.37 0.38 0.39 0.40 0.41 0.42 0.44 0.44 0.45 0.47 0.49 0.51 0.53 0.55 0.57 0.58 0.59 0.59 0.59 0.59 0.58 0.58 0.57 0.55 0.54 0.53 0.52
0.32 0.34 0.38 0.40 0.41 0.43 0.46 0.49 0.53 0.57 0.58 0.59 0.59 0.53 0.50 0.49 0.53 0.60 0.62 0.62 0.68 0.69 0.66 0.64 0.63 0.61 0.57 0.54 0.54 0.53 0.52 0.52 0.50 0.48 0.43 0.39 0.38 0.39 0.38 0.38 0.37 0.34 0.30 0.27 0.26 0.25 0.23 0.21 0.21 0.22 0.23 0.25 0.26 0.27 0.28 0.31 0.34 0.36 0.38 0.39 0.40 0.42 0.44 0.46 0.46 0.48 0.50 0.51 0.53 0.55 0.57 0.59 0.60 0.62 0.63 0.63 0.63 0.63 0.63 0.63 0.62 0.61 0.60 0.57 0.55
0.37 0.40 0.43 0.45 0.48 0.49 0.51 0.52 0.55 0.59 0.60 0.62 0.61 0.57 0.52 0.55 0.59 0.63 0.70 0.68 0.69 0.66 0.66 0.64 0.60 0.57 0.55 0.54 0.52 0.50 0.48 0.47 0.44 0.41 0.38 0.39 0.38 0.39 0.38 0.37 0.35 0.32 0.30 0.28 0.25 0.24 0.22 0.22 0.21 0.22 0.23 0.24 0.26 0.27 0.28 0.31 0.35 0.37 0.38 0.40 0.42 0.44 0.47 0.49 0.50 0.51 0.53 0.55 0.56 0.58 0.59 0.61 0.63 0.65 0.65 0.65 0.64 0.65 0.66 0.65 0.65 0.64 0.62 0.60 0.59
0.39 0.43 0.47 0.49 0.51 0.51 0.53 0.53 0.52 0.61 0.64 0.63 0.63 0.63 0.64 0.68 0.69 0.71 0.70 0.69 0.65 0.63 0.60 0.56 0.53 0.53 0.52 0.49 0.47 0.46 0.45 0.43 0.41 0.39 0.38 0.39 0.39 0.38 0.37 0.35 0.33 0.31 0.30 0.27 0.24 0.23 0.22 0.21 0.21 0.22 0.23 0.25 0.26 0.27 0.28 0.31 0.35 0.37 0.39 0.42 0.44 0.46 0.49 0.51 0.52 0.53 0.55 0.57 0.58 0.60 0.61 0.63 0.65 0.66 0.66 0.66 0.66 0.67 0.66 0.65 0.65 0.65 0.63 0.62 0.62
0.45 0.48 0.52 0.53 0.55 0.55 0.56 0.59 0.61 0.65 0.67 0.67 0.72 0.71 0.72 0.71 0.72 0.74 0.69 0.65 0.64 0.60 0.55 0.52 0.51 0.49 0.46 0.45 0.46 0.45 0.43 0.41 0.39 0.38 0.38 0.38 0.39 0.38 0.36 0.34 0.33 0.31 0.27 0.23 0.23 0.22 0.21 0.21 0.21 0.23 0.24 0.25 0.25 0.26 0.28 0.31 0.35 0.38 0.41 0.44 0.46 0.48 0.50 0.51 0.52 0.55 0.57 0.59 0.60 0.63 0.64 0.65 0.66 0.66 0.67 0.67 0.67 0.67 0.66 0.65 0.64 0.64 0.63 0.62 0.62
0.47 0.51 0.55 0.57 0.59 0.61 0.64 0.65 0.65 0.66 0.67 0.68 0.71 0.74 0.72 0.72 0.69 0.69 0.68 0.64 0.61 0.57 0.54 0.50 0.48 0.47 0.46 0.46 0.45 0.43 0.41 0.40 0.39 0.39 0.40 0.39 0.38 0.38 0.36 0.35 0.34 0.31 0.25 0.23 0.22 0.21 0.22 0.23 0.23 0.24 0.25 0.25 0.26 0.26 0.28 0.35 0.39 0.42 0.43 0.45 0.47 0.49 0.51 0.53 0.55 0.57 0.58 0.60 0.62 0.62 0.63 0.64 0.65 0.64 0.65 0.65 0.65 0.65 0.65 0.66 0.65 0.65 0.64 0.62 0.61
0.53 0.58 0.60 0.63 0.64 0.64 0.64 0.65 0.64 0.67 0.69 0.70 0.71 0.71 0.73 0.71 0.68 0.66 0.63 0.57 0.54 0.52 0.51 0.51 0.50 0.47 0.46 0.45 0.43 0.41 0.41 0.40 0.40 0.40 0.39 0.40 0.41 0.40 0.37 0.34 0.29 0.27 0.28 0.28 0.27 0.24 0.24 0.25 0.25 0.27 0.28 0.28 0.26 0.28 0.33 0.38 0.42 0.44 0.47 0.49 0.50 0.51 0.53 0.54 0.56 0.58 0.59 0.59 0.60 0.61 0.62 0.63 0.64 0.65 0.64 0.65 0.65 0.65 0.65 0.64 0.65 0.65 0.63 0.61 0.61
0.58 0.60 0.63 0.62 0.63 0.64 0.66 0.63 0.62 0.66 0.67 0.68 0.66 0.67 0.67 0.65 0.64 0.61 0.58 0.56 0.55 0.51 0.49 0.47 0.46 0.45 0.44 0.43 0.42 0.41 0.41 0.40 0.40 0.40 0.39 0.38 0.37 0.38 0.37 0.33 0.27 0.29 0.29 0.29 0.28 0.28 0.28 0.28 0.28 0.27 0.29 0.31 0.31 0.32 0.36 0.41 0.44 0.46 0.49 0.50 0.51 0.52 0.54 0.55 0.57 0.58 0.59 0.59 0.58 0.59 0.61 0.63 0.64 0.65 0.65 0.66 0.66 0.66 0.65 0.64 0.62 0.61 0.61 0.60 0.59
Wind_Speed
22 22 22 21 20 19 18 18 17 16 16 15 14 15 14 13 13 12 12 12 12 12 12 11 11 11 11 11 10 10 10 10 10 11 12 13 14 14 15 15 15 16 16 16 16 15 15 15 16 17 18 18 17 17 17 17 18 17 16 16 17 17 18 19 20 20 20 21 22 21 22 22 23 23 24 24 25 25 25 25 26 26 26 26 27
21 21 21 20 20 19 18 18 17 17 16 16 15 15 15 14 14 13 12 12 12 12 12 12 12 12 12 11 11 10 10 9 10 10 10 11 11 12 13 14 14 15 16 16 16 16 16 15 16 16 17 18 18 18 17 17 18 18 17 17 18 18 18 19 20 20 20 21 22 22 22 23 23 24 24 24 25 25 25 26 26 26 27 27 27
21 21 21 20 20 19 18 18 18 18 17 16 16 16 15 15 14 14 13 13 13 13 13 13 13 12 12 11 11 11 10 9 9 9 9 9 10 11 11 12 13 14 14 15 16 16 16 16 16 16 16 17 17 18 18 17 18 18 18 19 19 19 19 20 21 21 21 21 21 22 22 23 23 24 25 25 25 25 25 26 26 26 27 27 28
21 21 21 20 20 19 18 18 18 17 17 16 16 16 16 16 16 15 14 14 14 14 14 14 13 13 12 11 11 10 10 9 9 8 8 8 9 9 10 11 12 13 13 14 14 15 15 16 17 17 17 17 17 18 18 18 18 18 19 19 20 21 20 20 21 22 22 22 21 21 22 23 23 24 25 26 26 25 26 26 26 26 27 27 27
22 22 21 20 20 19 19 18 18 18 18 18 17 17 17 17 16 16 15 14 14 14 14 14 13 12 12 11 11 11 10 9 9 8 8 8 8 9 9 9 10 11 12 13 14 14 14 15 16 17 17 17 17 18 18 18 18 18 19 19 19 20 21 21 21 22 24 24 22 22 22 23 24 24 25 26 26 27 27 27 27 27 27 27 27
23 22 22 21 21 20 19 19 19 19 19 19 18 17 17 17 17 16 15 15 15 14 14 14 14 13 13 12 12 11 11 10 9 9 9 9 8 8 8 8 8 9 10 12 12 13 14 14 15 15 16 17 17 17 18 18 18 18 19 19 19 19 20 21 22 23 24 25 24 24 23 23 23 23 25 25 26 27 27 28 28 28 28 28 28
22 22 22 22 21 20 20 20 20 20 20 19 18 18 17 17 17 16 16 16 15 15 15 15 15 14 14 13 13 12 12 11 11 10 10 10 9 9 9 8 8 8 9 9 10 11 12 13 13 14 15 16 16 17 17 18 18 18 18 19 19 20 20 20 21 22 23 24 25 25 25 24 24 23 24 25 25 26 27 28 29 29 29 29 29
20 21 21 22 22 21 20 21 21 21 20 19 19 18 18 18 17 17 17 16 16 16 16 16 15 15 14 14 14 13 12 12 12 11 11 10 10 10 10 10 9 9 9 9 9 10 10 11 12 13 14 15 16 16 17 17 18 18 19 19 19 20 20 20 21 21 22 23 24 25 25 26 27 26 26 26 26 26 26 27 28 29 29 29 29
19 20 21 21 22 21 20 20 20 20 20 20 20 19 18 18 18 17 17 17 16 16 16 16 16 15 15 15 15 14 13 13 13 12 12 11 11 11 11 11 11 10 10 10 10 10 10 10 11 12 13 13 14 15 16 17 17 18 19 19 20 20 21 21 21 22 22 23 24 25 25 26 27 27 27 27 28 28 28 28 28 28 29 29 29
17 18 19 20 21 20 20 19 19 19 20 20 20 20 19 18 18 18 18 18 17 17 17 17 16 16 15 15 15 15 14 14 14 13 13 12 12 12 12 12 12 12 12 11 11 11 11 10 11 11 12 13 13 14 15 16 16 17 18 19 20 20 21 22 22 23 23 23 24 25 26 26 26 27 27 27 28 29 30 30 30 30 29 29 29
16 17 18 19 20 20 20 20 19 19 19 19 20 20 19 19 19 19 18 18 17 17 17 17 17 16 16 16 16 16 15 15 15 14 14 14 13 13 13 13 13 13 13 13 13 12 12 12 12 12 12 13 13 14 15 15 16 17 18 18 19 20 21 22 22 23 24 24 24 25 26 26 27 27 28 28 28 28 29 31 32 32 31 30 30
17 16 17 18 19 20 20 20 20 19 19 19 19 20 19 20 19 19 18 18 18 17 17 18 17 17 17 17 17 17 17 16 16 16 15 15 14 14 14 14 14 14 14 14 14 14 13 13 13 13 13 14 14 15 15 16 17 18 18 19 19 20 20 21 22 23 24 24 25 25 25 26 27 27 28 28 29 29 29 30 32 33 33 33 32
18 17 17 17 18 19 20 20 21 20 20 20 20 19 19 19 19 18 18 18 17 17 18 19 18 18 18 18 18 18 18 17 17 16 16 16 15 15 15 15 14 14 14 14 15 15 14 14 14 15 15 15 15 16 16 17 17 18 19 20 20 21 21 21 22 22 23 24 25 26 26 26 27 27 27 28 29 29 29 29 30 32 33 34 34
18 18 18 18 18 18 19 20 20 21 21 21 20 20 20 19 19 18 18 18 18 18 18 19 19 19 19 19 19 18 18 18 18 17 17 17 17 16 16 16 15 15 15 15 16 15 15 15 16 16 16 16 16 16 16 17 17 18 19 20 21 21 22 22 22 22 23 24 24 25 26 26 27 27 27 28 29 29 29 29 29 31 33 34 34
18 18 18 18 18 18 18 19 20 20 21 21 21 20 20 20 20 19 18 18 18 18 19 19 19 19 20 20 20 19 19 19 18 18 18 18 17 17 17 17 16 16 16 16 16 16 16 16 17 17 17 17 17 17 17 17 18 18 19 20 20 21 22 23 23 23 23 24 24 25 26 26 27 27 28 28 29 29 30 30 30 31 32 33 33
18 18 18 18 18 18 19 19 19 20 20 20 20 20 20 21 21 20 20 19 19 19 19 20 20 19 20 20 20 20 19 19 19 19 19 19 18 18 18 18 17 17 17 17 17 17 17 17 18 18 18 18 18 18 18 19 19 19 20 20 21 21 22 23 23 24 24 25 25 26 26 27 27 28 28 29 29 30 30 30 31 31 32 32 33
16 18 18 19 19 20 21 20 20 20 21 21 21 21 21 21 21 21 21 20 20 20 20 20 20 20 21 21 21 20 19 19 19 19 19 19 19 19 19 19 18 18 18 18 18 18 18 18 18 19 19 19 19 19 19 20 20 21 21 21 22 22 23 23 24 25 26 26 26 27 27 27 28 28 29 29 30 30 31 32 32 32 32 32 33
13 15 17 18 19 20 21 21 21 22 22 22 22 22 22 21 22 22 21 21 21 21 21 21 21 21 22 22 22 21 20 20 20 20 20 20 20 20 20 20 19 19 19 19 19 19 19 19 19 20 20 20 20 20 21 21 21 22 23 23 23 23 24 25 25 26 27 27 28 28 29 29 29 29 30 30 30 31 32 33 33 34 34 34 34
9 11 14 17 19 20 21 21 22 22 22 23 23 22 22 22 22 22 22 22 21 21 21 21 22 22 22 23 23 22 21 21 20 20 20 20 21 21 20 20 20 20 20 20 20 20 20 21 21 21 21 21 21 21 22 22 23 23 24 24 25 25 25 26 26 27 28 28 29 30 30 30 31 31 31 31 31 32 32 33 33 34 35 37 36
8 9 11 14 17 19 21 22 22 22 23 23 23 23 23 23 23 24 24 23 22 21 21 21 22 22 22 23 23 23 22 21 21 21 21 21 21 21 21 21 21 21 21 21 21 22 22 22 22 22 22 22 22 23 23 24 24 25 25 26 26 26 27 27 27 28 29 30 30 31 31 32 32 32 33 33 33 33 33 34 34 34 35 37 37
12 11 12 13 13 16 19 21 23 23 24 24 24 24 24 24 24 25 25 24 23 22 21 22 22 22 22 23 23 23 22 22 22 22 22 22 22 22 22 22 22 22 22 22 22 22 23 23 23 23 23 23 24 24 25 25 26 26 27 27 28 28 28 29 29 30 30 30 31 32 32 33 33 33 34 34 34 35 35 35 35 35 35 35 36
16 15 15 15 15 15 17 20 23 25 25 26 26 26 26 26 26 25 26 26 25 24 23 23 23 23 23 23 23 23 22 22 22 22 22 22 22 22 22 22 22 22 22 22 22 23 23 23 23 23 24 24 25 26 26 27 27 28 28 28 29 30 30 31 31 32 32 32 32 33 33 34 34 34 35 35 35 36 36 36 36 36 36 35 35
17 17 17 17 17 17 19 20 22 24 26 27 28 28 27 28 28 28 27 27 27 26 26 25 25 25 25 24 24 23 23 22 22 22 22 22 22 22 22 22 22 22 22 23 23 23 23 23 24 24 25 25 26 27 27 28 28 29 29 30 31 31 32 32 33 33 34 34 34 34 34 34 34 35 35 35 36 36 37 37 38 37 37 36 36
18 18 19 19 19 19 21 22 23 24 25 27 29 30 29 28 29 30 30 29 28 28 27 26 26 26 26 26 25 24 23 23 23 23 22 22 22 22 22 22 22 23 23 23 24 24 24 24 24 25 25 26 27 27 28 29 30 30 31 32 32 33 33 34 34 34 35 35 35 35 35 35 35 36 36 36 36 36 37 38 38 38 38 38 37
19 20 20 21 21 21 22 23 24 26 27 28 29 30 31 31 30 30 30 30 29 29 28 27 27 27 27 27 27 26 25 24 24 24 23 23 22 22 22 23 23 23 24 24 24 24 24 24 25 25 26 27 28 29 29 30 31 31 32 33 33 34 34 34 35 35 35 36 36 36 36 36 37 37 37 37 37 37 37 38 39 39 39 39 38
21 21 21 22 23 23 23 24 25 27 29 30 30 31 32 33 32 31 32 32 32 32 31 29 28 28 28 28 27 27 25 25 25 25 24 24 23 23 23 23 23 23 24 24 24 24 24 25 25 26 27 28 29 30 30 31 31 32 33 34 34 35 35 35 36 36 36 37 37 37 37 37 38 38 38 38 38 38 38 38 39 39 39 40 40
23 24 25 26 26 26 26 27 27 27 29 30 31 32 33 34 33 33 33 33 33 33 33 33 30 29 29 29 29 28 26 26 26 25 24 24 24 23 23 23 23 23 23 24 24 24 24 25 26 27 28 29 29 30 31 31 32 33 34 35 35 36 36 36 36 37 37 37 38 38 39 39 39 39 39 39 39 39 39 39 39 39 40 40 40
27 27 28 28 28 29 29 29 29 29 29 30 31 32 33 34 35 35 35 35 35 33 33 34 33 32 31 31 30 29 28 27 27 26 25 24 24 24 23 23 23 23 23 23 23 24 24 25 26 27 28 29 29 30 31 32 33 34 35 36 36 37 37 37 37 38 38 38 39 39 40 40 40 40 40 40 40 40 40 40 39 40 40 41 41
29 29 29 30 29 29 30 30 30 31 31 32 32 33 33 34 36 36 36 36 36 35 34 34 34 33 31 30 30 29 28 28 27 27 26 25 25 25 24 24 24 24 24 24 24 24 25 26 27 28 28 29 29 31 32 33 34 35 36 37 37 38 38 38 38 39 39 39 40 40 40 41 41 42 42 42 42 42 42 42 41 41 41 41 42
30 31 31 32 31 31 31 31 30 31 31 32 32 33 34 34 35 36 36 36 36 36 35 33 33 33 32 31 31 29 28 28 27 26 26 26 25 25 25 24 25 25 25 25 25 25 26 27 27 28 28 29 30 31 33 34 35 36 37 37 38 38 38 39 39 39 40 40 41 41 41 42 43 43 43 44 44 44 44 44 44 43 43 43 43
31 32 32 33 33 32 32 32 31 32 32 32 32 32 33 35 36 37 37 37 36 35 34 33 33 33 33 32 32 30 29 28 27 26 26 26 26 25 25 25 25 26 26 26 26 26 27 27 28 28 29 30 31 33 34 35 36 37 38 38 39 39 39 40 40 41 41 41 42 42 42 43 43 43 44 44 44 45 45 45 45 45 45 45 44
31 32 32 32 33 33 33 33 33 33 33 33 32 32 32 33 36 37 38 38 37 36 36 35 34 34 33 32 32 31 29 28 28 28 28 27 26 26 26 26 26 26 26 27 27 27 27 28 28 29 30 32 33 35 36 37 38 39 39 39 39 40 40 41 41 42 42 43 43 43 43 44 44 44 45 45 46 46 46 46 46 46 46 47 46
32 33 33 32 33 33 33 34 34 34 34 34 34 34 34 33 34 36 37 39 39 38 38 37 36 35 34 33 33 32 30 28 28 29 28 27 27 27 27 27 27 27 27 27 27 27 27 28 30 31 33 34 35 36 38 38 39 40 40 40 40 41 41 42 42 43 43 44 44 45 45 45 45 46 46 46 47 47 47 47 47 47 47 48 48
33 34 34 34 34 34 34 35 35 35 35 35 35 36 36 35 34 34 35 37 38 38 39 38 38 37 36 35 35 34 32 30 28 28 28 28 27 27 27 27 27 27 27 27 27 27 28 30 31 33 34 35 36 37 39 39 40 40 41 41 42 42 42 43 43 43 44 44 45 45 45 46 46 46 46 47 47 48 48 48 48 48 48 48 48
34 34 34 35 35 35 36 36 36 36 36 36 36 36 37 37 36 35 35 35 36 37 38 39 40 38 37 37 37 35 33 31 29 27 26 26 26 27 27 27 27 27 27 27 27 28 29 31 32 33 34 35 37 38 39 39 40 41 42 42 43 43 43 43 43 43 44 44 44 45 45 45 46 46 46 47 48 48 49 49 49 50 50 49 49
34 35 35 35 36 36 36 36 37 37 37 37 36 37 37 38 38 37 36 35 35 36 36 36 37 37 37 36 36 34 32 31 29 27 26 26 26 27 27 27 27 26 26 27 27 28 30 31 32 32 34 35 36 37 39 39 40 41 42 43 43 43 43 43 43 43 44 44 44 44 45 45 46 46 46 47 48 49 50 50 50 51 51 51 51
35 35 36 36 36 36 37 37 38 38 38 38 37 37 37 38 38 38 37 36 35 35 35 33 31 31 32 32 31 29 28 28 28 28 27 27 27 27 26 26 26 26 26 27 28 29 29 30 31 32 33 35 36 37 39 40 41 42 43 43 43 43 43 43 44 43 44 44 44 45 45 46 46 47 47 47 48 49 50 51 51 52 51 51 51
36 36 36 36 36 36 37 38 38 39 39 39 39 38 37 37 38 38 37 36 35 36 36 35 32 31 32 32 31 29 27 26 27 27 27 27 26 25 25 25 25 26 27 27 28 28 29 30 32 33 34 36 37 39 40 41 42 43 43 43 43 43 43 43 43 44 44 44 45 46 46 47 47 48 48 48 49 49 50 51 52 52 52 52 51
36 36 37 37 37 37 38 38 39 39 39 39 39 39 38 37 37 37 37 37 36 36 36 36 34 31 31 32 31 30 29 27 27 27 26 26 25 24 24 24 25 26 26 27 28 29 30 31 32 33 35 37 39 40 41 42 43 43 44 44 43 43 43 43 43 44 44 45 45 46 47 47 48 48 49 49 49 50 50 51 51 52 53 52 51
37 38 38 39 38 38 38 38 38 38 38 37 37 37 37 37 36 36 37 37 36 36 36 36 34 31 29 27 27 27 28 28 27 26 26 25 24 23 23 24 25 26 27 28 29 30 31 32 33 34 36 37 39 41 42 43 43 44 44 44 43 43 43 44 44 45 45 46 46 46 47 48 49 49 49 50 50 50 51 51 51 52 53 52 51
38 38 39 39 39 38 38 37 36 36 35 34 34 35 35 35 35 35 36 36 35 35 35 35 34 32 29 27 25 24 24 24 25 25 25 25 25 24 25 25 26 27 28 29 30 30 31 32 33 35 36 38 40 41 42 43 44 44 44 43 42 43 43 44 45 45 45 45 45 46 46 47 48 49 49 49 50 50 50 51 51 52 52 52 51
37 38 38 38 38 37 36 35 34 34 33 32 32 32 33 34 34 35 35 35 34 34 34 34 33 32 30 29 27 24 23 23 23 23 24 25 25 25 26 26 27 28 28 28 29 29 30 32 34 35 37 38 40 41 42 44 44 44 43 43 43 43 44 44 44 44 44 44 44 45 46 46 47 47 48 48 48 49 49 50 51 51 52 52 52
37 37 37 36 36 35 33 33 33 32 32 31 31 31 31 31 32 33 33 33 32 32 32 33 33 32 30 28 27 25 24 23 22 22 22 23 24 24 25 26 26 27 27 27 28 29 31 33 35 36 37 38 40 41 43 44 44 43 43 42 42 43 43 43 43 43 43 43 44 44 45 45 45 45 46 46 46 47 48 48 49 50 51 51 51
35 35 35 34 33 32 31 31 31 31 31 30 29 30 29 29 30 30 30 31 32 31 30 30 31 30 28 26 24 23 22 21 21 21 21 21 22 23 23 24 24 25 25 27 28 30 31 33 35 36 38 39 40 42 43 43 43 42 42 42 42 42 42 42 42 43 43 43 43 42 42 42 42 42 42 42 43 44 44 45 46 48 49 49 50
33 32 31 29 29 29 29 29 30 30 30 29 28 27 27 27 27 28 29 29 30 29 28 28 28 26 24 23 21 20 20 19 19 19 19 19 20 20 21 22 23 24 25 27 29 30 32 34 36 37 38 40 41 42 42 42 42 41 41 41 40 40 41 41 42 42 42 41 40 39 39 39 38 38 38 38 39 40 41 42 43 44 45 46 47
29 28 27 26 26 26 27 27 27 26 25 24 23 23 24 24 24 25 28 29 29 28 27 27 26 23 22 21 20 19 18 18 18 17 17 17 17 18 19 21 22 23 25 27 29 31 32 34 36 38 39 40 41 41 41 41 41 40 40 39 39 39 40 41 41 41 40 39 37 37 36 36 35 35 35 34 35 36 37 39 40 41 42 43 44
25 25 25 24 23 23 22 22 22 20 19 18 18 18 19 20 21 24 27 28 28 27 26 25 24 23 21 21 20 18 17 17 18 17 17 17 17 18 19 20 22 24 26 28 29 31 33 35 36 38 39 39 40 40 40 40 39 39 38 37 38 38 39 39 38 37 35 34 34 34 34 34 33 33 32 33 33 33 34 35 36 37 39 40 41
24 23 23 21 20 18 17 15 14 13 12 14 14 13 16 19 21 24 27 27 26 25 24 23 23 22 20 19 18 17 17 17 17 17 16 16 17 18 19 20 22 24 26 28 29 31 33 34 36 37 38 39 39 38 39 39 38 37 37 37 37 37 37 36 34 33 31 31 30 31 30 30 30 30 30 30 31 31 32 32 33 34 35 36 38
21 20 19 16 14 13 11 10 9 8 9 12 12 13 17 20 23 25 26 25 24 23 22 22 21 19 17 16 16 16 16 15 15 15 15 16 17 18 18 20 22 24 26 27 29 31 33 34 35 36 37 37 37 37 38 38 37 36 36 37 36 36 34 32 31 30 29 28 28 27 27 26 26 27 27 28 28 28 29 29 30 31 31 32 35
18 16 15 13 11 11 10 9 8 8 9 12 13 15 18 21 23 25 25 24 23 22 21 20 18 16 16 16 15 14 14 13 12 13 14 15 16 17 18 20 22 24 26 27 29 31 32 33 34 34 35 35 36 37 37 37 36 36 36 36 35 33 31 29 28 28 27 26 26 25 25 25 25 25 25 26 25 25 26 26 26 27 28 29 31
14 12 11 11 10 9 8 9 9 8 10 14 17 19 19 21 23 24 24 23 22 21 19 18 16 16 15 14 13 12 11 11 11 12 13 14 15 17 19 21 23 24 26 27 29 31 31 32 32 32 33 34 35 36 36 36 35 35 35 34 32 30 28 27 26 26 25 24 24 23 23 23 23 24 24 23 22 22 22 23 23 24 25 26 28
Wind_Direction
247 244 242 242 241 242 242 241 240 242 245 247 249 250 252 251 251 252 250 245 243 244 246 246 248 250 249 250 257 261 260 260 261 259 256 253 251 249 247 245 243 243 242 241 240 240 240 240 239 237 237 236 235 235 233 233 234 237 239 236 233 232 232 231 232 233 235 234 233 234 236 236 236 236 237 239 240 241 241 241 241 241 241 242 242
246 246 245 244 244 244 243 239 236 237 240 244 246 247 250 250 250 251 251 247 243 244 246 246 247 248 246 246 253 257 257 257 259 260 259 256 252 248 247 245 244 244 243 242 242 241 241 240 239 239 239 238 236 236 235 237 238 239 241 240 237 236 236 235 234 235 237 237 236 237 239 239 238 238 238 240 241 241 242 243 243 243 243 243 243
246 245 245 245 246 245 242 238 236 236 238 242 244 245 248 249 249 251 253 250 244 245 247 247 248 247 245 248 252 255 256 256 258 259 260 259 255 249 246 245 245 244 243 242 242 242 241 241 240 240 240 239 238 237 238 241 243 243 244 244 242 241 241 240 238 236 237 239 239 240 243 242 241 241 240 240 241 242 242 244 245 245 245 245 245
245 244 245 245 246 244 240 238 237 237 238 241 242 244 247 247 247 249 253 252 246 247 249 248 247 246 245 248 252 255 255 255 259 261 261 260 257 254 249 247 246 244 242 240 240 241 242 242 242 242 242 242 242 241 242 244 246 246 247 247 246 245 244 243 241 238 239 240 241 244 246 245 244 244 242 242 242 243 244 245 246 246 245 245 246
243 243 244 245 244 242 239 237 236 235 237 240 242 243 246 246 246 248 252 252 248 248 247 245 244 244 244 247 252 254 252 252 256 258 258 256 255 256 253 250 248 244 241 241 242 243 243 243 243 243 243 244 244 245 246 247 247 247 247 247 247 247 247 245 243 242 241 241 243 246 247 248 248 246 244 245 245 245 246 246 246 246 246 246 247
243 243 243 243 243 241 239 236 235 234 237 240 242 243 244 245 245 248 252 252 248 247 245 243 244 244 244 246 248 249 247 248 250 251 251 251 252 254 252 251 249 246 242 241 243 244 244 244 244 243 243 244 245 246 247 248 248 248 248 248 247 247 248 247 245 245 244 243 244 247 247 249 251 249 246 247 247 247 247 247 247 247 247 247 247
244 242 240 240 240 240 238 237 235 236 238 239 241 243 243 244 246 248 251 250 248 247 245 244 245 246 246 246 246 244 243 245 247 248 248 249 251 252 251 251 250 249 247 244 243 243 243 245 244 244 244 244 245 246 248 249 250 250 250 249 249 248 248 248 247 247 246 246 246 248 249 249 250 250 248 248 249 249 248 248 248 248 248 248 248
242 240 238 238 238 238 239 238 236 236 237 238 240 242 242 243 245 249 250 249 247 247 246 245 245 245 245 245 243 242 241 242 244 245 247 248 249 251 252 252 252 250 248 248 247 245 245 246 246 246 246 246 247 247 249 250 251 252 252 251 251 250 250 250 249 249 248 248 249 250 251 250 250 252 251 249 249 250 250 250 249 249 248 248 248
241 239 237 238 238 238 239 238 236 236 236 236 239 241 242 242 244 248 248 247 246 247 246 245 244 244 243 242 242 242 242 242 244 246 247 247 247 249 250 252 252 250 247 247 247 247 248 249 249 249 249 250 250 250 251 252 252 253 253 253 253 253 252 251 251 251 250 250 251 251 252 252 252 253 253 251 250 251 251 251 250 250 249 249 248
243 242 240 239 239 239 239 238 237 237 237 238 240 242 242 242 244 246 247 245 246 247 245 243 243 243 242 241 242 242 242 243 246 248 248 248 248 248 249 249 250 250 249 248 248 249 249 250 251 252 253 253 253 254 253 254 254 254 255 255 255 256 256 255 254 254 253 253 253 253 253 253 253 253 253 253 253 253 253 252 250 250 249 249 249
243 244 242 241 241 241 241 240 238 238 239 240 242 242 242 243 243 245 245 244 245 247 244 241 242 243 242 242 243 243 243 245 247 249 251 251 251 250 250 249 249 250 250 251 251 251 251 252 253 254 256 256 256 257 257 257 257 257 257 257 257 257 257 257 257 257 256 255 255 255 254 254 254 254 254 254 254 255 255 253 250 249 249 249 249
241 242 243 243 243 243 243 242 240 239 239 240 242 241 242 242 243 244 244 243 244 245 243 241 242 244 243 244 245 244 245 247 249 250 252 252 252 252 251 251 251 251 251 252 253 253 254 256 258 259 261 260 260 261 261 261 261 260 260 260 260 260 259 259 258 258 258 257 257 256 256 256 256 256 256 255 255 255 256 254 251 249 249 250 250
238 241 243 243 244 244 243 241 239 239 239 239 240 240 241 240 240 241 241 241 243 244 243 242 244 245 245 245 246 246 247 248 250 252 253 253 253 253 253 252 252 252 253 254 254 255 256 259 261 262 264 265 266 266 265 266 265 264 262 262 261 261 261 260 259 259 258 258 258 258 258 258 258 258 257 257 257 257 256 255 253 251 251 251 252
240 242 243 244 245 244 241 239 239 239 239 238 238 238 238 238 237 239 241 242 243 244 244 244 245 246 246 246 247 248 249 250 251 252 254 254 254 254 255 255 254 254 255 256 256 257 258 259 261 263 265 267 268 268 268 269 269 268 266 265 263 262 261 261 261 260 259 259 259 259 260 260 259 259 258 258 258 257 256 255 254 253 253 253 253
241 244 245 245 244 241 239 237 236 237 238 238 239 239 239 239 239 240 242 243 244 245 246 246 246 247 247 247 249 250 251 252 252 253 254 254 255 255 256 256 256 256 257 257 257 258 260 261 262 263 265 267 268 269 270 271 272 271 270 268 266 264 263 262 262 262 261 261 260 260 261 261 261 261 260 260 259 258 257 256 256 255 255 254 254
245 245 245 245 243 240 238 236 236 238 238 239 240 241 241 242 242 242 243 244 245 247 247 246 246 247 247 247 249 250 251 252 253 253 254 254 255 255 256 256 256 257 257 258 258 260 261 263 264 264 265 266 268 269 271 271 272 273 272 271 269 267 265 264 263 262 262 262 262 262 262 261 262 262 262 262 261 260 258 258 257 256 256 256 255
252 248 245 244 243 243 242 240 240 241 241 241 242 242 242 243 243 243 245 246 247 248 248 247 246 247 248 248 249 250 251 252 252 252 253 255 255 255 256 256 256 257 258 259 260 261 263 264 265 266 266 267 268 270 271 272 273 274 273 273 271 269 267 265 265 264 263 263 263 263 263 262 263 263 263 263 263 262 260 259 258 257 257 257 257
261 256 251 248 249 247 244 242 244 244 243 243 242 243 243 243 243 243 245 247 248 248 248 247 247 248 249 248 248 249 251 252 252 252 254 255 255 255 256 256 256 257 258 259 261 263 264 266 267 268 268 269 270 271 272 274 275 275 274 273 272 270 269 267 266 265 265 265 264 264 264 263 263 263 263 263 263 263 262 260 259 258 257 257 258
270 266 260 257 256 252 248 247 247 246 245 245 244 244 244 244 245 244 246 248 248 248 249 249 249 250 250 249 249 250 251 252 253 253 254 254 255 256 256 256 257 257 258 260 261 263 265 266 268 269 270 271 272 272 274 275 276 276 275 274 273 272 271 270 269 267 266 266 266 266 266 265 264 264 264 263 263 263 263 262 261 259 257 257 258
277 277 272 266 263 258 254 252 250 247 247 247 246 246 246 247 247 246 247 248 249 249 250 250 250 251 250 249 250 251 252 252 253 253 254 254 255 256 257 257 258 258 259 260 262 263 265 266 268 269 270 272 273 274 275 276 276 276 275 274 274 273 273 272 272 270 269 268 268 267 267 266 266 266 265 264 263 263 263 263 263 262 260 258 257
278 282 282 279 276 269 259 254 252 252 251 250 248 248 248 249 249 248 247 246 247 249 250 251 251 251 250 250 250 251 251 252 252 253 254 255 256 257 257 258 258 259 260 262 263 264 265 267 268 269 271 272 274 275 276 277 277 277 276 275 274 274 274 273 273 272 271 270 269 269 268 268 267 267 266 265 264 263 263 263 263 263 263 261 259
272 273 277 279 281 278 267 258 256 255 254 252 252 250 250 250 249 248 248 247 248 250 251 252 252 251 250 250 251 251 252 252 252 253 254 255 256 257 258 258 259 260 261 263 264 266 267 268 269 271 272 274 275 276 277 277 277 277 276 276 275 274 274 274 273 273 272 271 270 269 268 268 268 267 267 266 265 264 263 263 263 263 263 262 261
270 268 271 274 276 277 273 267 262 259 256 254 254 253 252 252 250 248 248 249 249 251 253 252 252 251 250 250 250 251 252 252 252 253 254 255 257 258 258 259 260 261 263 264 266 267 269 270 271 273 274 275 276 277 277 277 277 277 277 276 276 275 274 274 273 272 272 271 270 270 269 268 267 267 267 266 265 264 263 262 262 261 262 262 261
273 271 271 272 275 277 276 273 267 262 259 257 255 254 252 254 254 250 248 249 250 251 252 252 252 252 251 251 251 251 252 252 253 254 255 256 257 258 259 260 261 263 264 266 268 269 270 271 273 274 276 277 277 278 278 278 278 278 277 277 276 276 275 274 273 272 271 270 270 270 269 268 268 267 267 266 266 265 263 262 261 261 261 261 261
273 273 273 273 274 277 277 276 271 265 261 260 258 255 253 255 256 253 251 252 252 251 250 251 253 252 251 251 251 251 252 252 253 255 255 256 257 259 261 262 263 264 266 268 269 270 271 273 274 275 276 277 278 279 279 279 279 279 278 278 278 277 276 275 274 272 271 270 270 270 269 269 268 268 267 266 266 266 264 263 261 260 260 260 260
270 270 272 272 274 275 277 278 276 271 267 263 260 258 256 255 255 254 253 253 253 253 251 249 251 251 249 249 250 250 251 252 254 256 256 256 257 260 262 263 264 266 267 269 270 271 272 274 275 276 277 278 279 280 280 281 281 281 281 280 279 279 278 276 275 274 272 271 270 270 270 269 268 268 268 267 267 266 265 264 262 261 260 259 259
272 271 273 274 275 276 277 278 277 275 273 269 265 262 258 255 254 255 255 253 253 254 251 247 249 251 249 248 248 249 250 252 254 256 257 257 258 260 262 264 266 267 269 270 271 272 274 275 276 278 278 279 280 281 282 283 283 283 283 282 281 280 279 277 276 275 273 272 271 270 270 269 268 268 268 268 267 266 265 264 263 261 260 260 259
277 276 277 277 278 277 277 278 277 276 275 273 270 265 262 258 255 254 253 252 252 252 250 247 249 250 249 247 247 248 249 251 253 256 257 258 259 261 263 266 268 269 270 271 272 273 275 277 278 279 279 280 281 283 284 285 285 285 284 283 282 281 280 278 276 275 273 272 271 270 269 269 268 268 267 267 267 267 266 265 264 262 261 260 259
278 278 278 278 279 277 277 277 277 276 275 274 272 268 264 262 258 254 252 252 252 251 250 248 249 248 247 246 245 246 247 249 252 255 256 257 259 262 264 267 269 270 272 272 273 275 277 279 280 281 282 283 284 285 286 287 287 287 286 285 283 282 281 279 277 276 274 273 272 271 270 269 268 267 267 266 266 266 265 265 264 263 262 260 259
277 277 277 277 277 276 275 275 275 275 274 274 273 270 266 262 260 256 253 251 251 249 248 248 248 245 245 245 244 243 246 249 251 253 254 256 259 261 264 267 269 271 272 273 275 277 279 281 282 283 284 285 286 287 288 288 289 288 287 286 285 283 281 280 279 277 276 274 273 272 271 270 269 268 267 266 266 265 264 264 263 263 262 261 260
277 277 277 276 275 274 273 273 273 273 273 272 271 271 267 263 259 257 253 251 248 246 245 247 246 244 245 246 242 242 247 248 249 252 254 256 258 260 263 266 268 270 272 274 276 279 281 282 283 284 285 286 287 289 289 290 290 289 288 287 286 284 282 281 279 278 277 276 274 273 272 271 270 269 268 267 266 266 265 264 263 262 261 260 260
278 278 277 276 275 274 273 273 273 272 272 270 269 269 268 264 260 256 253 250 247 245 245 246 246 244 244 243 240 243 246 246 248 252 254 256 258 260 262 264 266 269 271 274 277 279 281 282 283 285 286 287 289 290 291 291 291 290 289 288 287 286 284 282 280 279 277 276 275 274 273 271 270 269 268 267 266 266 265 264 263 261 260 259 258
278 278 278 277 276 275 274 274 273 271 270 270 268 267 267 266 262 257 253 249 246 245 245 245 245 244 243 241 241 242 243 245 250 253 253 255 257 259 261 263 265 267 270 273 276 278 279 282 284 286 288 289 291 292 292 292 292 291 290 289 288 287 285 283 281 279 277 276 275 274 273 272 271 270 269 268 266 266 265 264 263 261 260 259 258
280 279 279 278 277 276 276 275 273 272 270 269 268 266 265 265 262 259 255 251 248 246 244 243 243 243 242 241 241 240 241 245 250 252 252 253 255 258 260 262 263 266 268 271 273 276 279 282 286 288 290 291 293 293 293 293 292 292 290 289 288 287 285 283 281 279 278 276 275 274 273 272 271 270 269 268 267 266 264 263 262 261 260 259 258
282 281 280 279 278 278 277 275 274 273 271 270 268 266 265 263 261 258 256 254 251 248 243 242 242 242 241 241 239 238 240 243 246 250 251 252 255 259 260 260 262 264 267 269 273 277 281 284 288 290 291 293 294 294 294 294 293 293 291 290 289 287 284 282 281 279 278 276 275 274 273 272 271 270 269 268 267 266 265 264 262 261 260 258 257
282 281 280 279 279 278 277 276 274 273 272 270 268 267 265 263 260 257 254 252 251 248 243 240 239 239 239 238 235 234 238 240 242 246 249 252 257 260 260 260 262 264 267 271 275 278 282 285 288 290 293 295 296 296 295 295 294 293 292 291 289 287 284 282 280 279 278 277 275 274 273 272 272 271 270 269 268 267 265 264 263 261 260 258 257
281 281 280 279 278 278 277 276 274 273 272 270 269 267 265 263 259 255 252 250 247 244 240 237 236 236 235 232 230 232 236 239 241 245 250 254 259 259 258 260 262 265 268 272 276 280 283 286 289 292 295 297 297 297 297 296 296 295 293 292 290 287 285 282 281 280 279 277 276 274 273 273 272 271 270 269 267 266 265 264 263 261 260 259 257
281 280 279 278 278 278 277 277 275 273 272 270 268 266 264 262 258 253 250 247 243 240 238 236 235 235 234 233 233 235 236 239 243 247 250 254 257 257 258 260 264 267 270 274 278 282 285 288 291 294 296 297 298 299 299 298 297 296 295 293 290 288 285 284 282 281 279 278 276 275 274 273 272 271 270 268 267 266 264 263 262 261 260 259 257
281 280 279 278 279 279 278 278 276 274 272 269 267 264 262 260 256 252 248 245 241 238 236 234 234 236 235 233 234 234 236 240 244 247 250 252 255 257 259 263 267 270 273 277 280 283 286 289 292 294 296 298 300 301 301 299 299 297 296 293 291 288 286 285 283 282 280 279 277 276 274 273 272 271 270 268 267 265 264 262 261 260 259 258 257
282 281 280 279 280 280 279 278 277 275 272 269 265 263 260 258 254 250 245 242 239 235 232 231 232 232 229 227 229 232 236 241 244 247 249 251 254 259 263 268 271 273 276 278 280 282 286 289 292 295 297 299 301 302 301 300 299 298 297 294 291 289 287 286 285 284 282 280 278 277 276 274 273 271 270 268 266 265 263 262 260 259 257 257 256
283 282 281 280 279 279 277 277 276 275 271 267 263 261 258 256 252 247 242 238 235 231 229 228 228 226 223 224 228 232 237 242 245 246 248 251 256 262 267 270 273 275 276 278 280 283 287 290 293 296 298 299 301 303 302 301 300 299 297 294 291 289 288 288 286 285 283 281 280 278 277 275 274 272 270 268 266 264 263 261 260 258 257 256 255
284 285 283 280 278 277 275 274 274 273 270 266 262 260 258 254 249 245 239 234 231 227 225 224 224 222 222 225 228 233 239 243 245 248 250 254 259 265 269 271 273 274 276 278 282 285 288 291 295 297 298 299 302 303 303 303 301 299 297 295 292 291 290 289 288 286 284 283 281 280 279 277 275 273 271 269 267 265 263 261 259 258 257 255 254
285 286 285 281 277 275 273 272 273 273 270 266 262 260 256 251 246 241 235 230 226 223 222 223 222 220 221 224 227 233 239 242 246 250 253 257 261 266 269 270 271 273 277 280 283 287 290 293 296 297 298 300 302 303 304 303 302 300 298 296 294 292 291 290 289 287 286 284 283 281 280 278 275 274 272 270 267 265 262 260 259 258 256 254 253
285 285 285 281 277 274 272 271 271 271 269 264 261 259 253 246 241 236 230 224 221 219 218 217 214 213 215 220 225 231 236 240 247 252 256 259 263 265 268 270 272 276 279 282 286 289 292 294 296 298 299 300 302 304 304 304 302 301 299 297 295 294 292 291 290 289 287 286 285 282 280 278 276 274 272 270 267 265 262 261 259 257 255 253 251
285 285 284 280 276 273 272 271 271 270 267 261 258 254 247 239 234 228 221 215 211 210 207 203 202 205 211 215 221 228 233 239 247 251 255 260 263 265 269 273 276 279 282 285 289 292 294 296 297 298 299 301 303 305 305 305 303 302 300 299 297 295 294 293 291 290 289 287 285 282 280 278 276 274 272 270 267 265 263 261 259 257 255 252 250
284 283 282 280 276 274 273 273 272 270 264 257 252 246 237 230 224 218 210 204 200 198 195 195 198 205 209 213 220 227 232 237 243 249 255 261 265 270 273 276 279 282 286 289 292 294 296 297 298 299 301 303 305 306 306 306 305 303 301 300 298 297 296 295 293 291 290 287 284 282 281 279 276 274 272 270 269 267 265 262 260 258 255 253 250
283 282 281 279 276 274 274 274 272 266 255 246 242 235 224 215 208 200 193 190 190 191 193 197 202 205 208 214 221 225 229 236 243 251 259 264 270 275 278 280 283 286 289 292 294 296 297 298 300 301 303 305 306 307 307 307 307 305 303 301 300 300 299 297 295 293 291 288 285 283 282 279 275 274 273 272 270 269 266 264 261 258 255 252 250
282 281 279 278 275 272 271 270 265 255 237 224 220 212 201 191 185 181 180 180 183 187 191 196 199 202 209 216 220 223 231 239 246 253 260 266 273 279 282 285 288 291 293 295 296 298 299 300 301 303 305 306 307 307 309 309 308 306 304 303 303 302 301 299 297 294 292 290 288 286 283 280 277 276 275 274 272 270 267 264 261 258 255 251 249
281 278 276 273 266 257 254 253 248 229 208 203 201 193 184 179 175 174 176 178 179 181 184 189 194 201 209 214 218 227 236 242 248 254 262 271 279 283 286 289 292 295 297 298 299 301 302 302 304 306 306 307 308 309 311 311 310 308 306 306 305 304 302 300 298 295 293 292 290 287 284 281 280 279 277 276 274 271 267 263 260 258 255 251 249
276 273 268 256 243 240 241 236 223 205 193 189 184 177 173 173 173 173 174 175 176 178 182 186 192 200 207 213 221 230 237 242 250 260 269 278 285 288 289 293 297 299 299 300 301 303 304 304 306 307 308 308 309 311 313 313 311 310 309 308 307 306 304 302 300 298 296 293 291 288 286 285 284 283 281 279 276 271 266 262 259 256 254 251 249
271 265 249 231 227 234 229 211 196 183 173 169 166 164 163 164 167 169 171 174 178 181 183 187 193 200 207 214 222 229 237 247 259 269 277 285 290 292 293 296 300 302 302 303 304 305 305 306 307 308 310 311 313 314 315 315 314 313 312 311 310 308 306 305 303 300 297 294 292 290 290 289 288 286 283 281 278 273 267 263 260 256 253 250 249